Regional Weather Roundup
Issued by NWS

Home | Current Version | Previous Version | Graphics & Text | Print | Product List | Glossary On
Versions: 1 2 3 4 5 6 7 8 9 10 11 12 13 14 15 16 17 18 19 20 21 22 23 24 25 26 27 28 29 30 31 32 33 34 35 36 37 38 39 40 41 42 43 44 45 46 47 48 49 50
000
ASUS45 KPSR 011910
RWRAZ

ARIZONA REGIONAL HOURLY WEATHER ROUNDUP
NATIONAL WEATHER SERVICE PHOENIX AZ
1200 PM MST SUN MAR 01 2015

NOTE: FAIR INDICATES FEW OR NO CLOUDS BELOW 12,000 FEET WITH NO
SIGNIFICANT WEATHER AND/OR OBSTRUCTIONS TO VISIBILITY.

AZZ001>003-036-012000-
NORTHWEST ARIZONA

CITY           SKY/WX    TMP DP  RH WIND       PRES   REMARKS
BULLHEAD CITY  CLOUDY    63  39  42 SW7       29.99S
KINGMAN        CLOUDY    52  36  54 VRB3      29.99S
$$

AZZ004>008-015-016-018-012000-
NORTH CENTRAL ARIZONA

CITY           SKY/WX    TMP DP  RH WIND       PRES   REMARKS
GRAND CANYON   SNOW      33  32  96 SE5       30.04F VSB 1/2 WCI  29
PRESCOTT       CLOUDY    39  36  89 NW9       30.04S WCI  33
FLAGSTAFF      SNOW      33  30  88 NE5       30.06R VSB 1/2 WCI  29
PAYSON         CLOUDY    46  45  93 VRB6      30.08S
PAGE           LGT RAIN  38  35  89 N6        30.07F WCI  33
$$

AZZ009>014-017-012000-
NORTHEAST ARIZONA

CITY           SKY/WX    TMP DP  RH WIND       PRES   REMARKS
WINSLOW        CLOUDY    41  38  89 NW8       30.09S
SAINT JOHNS    PTSUNNY   59  33  37 SW16G25   30.03F
WINDOW ROCK    CLOUDY    48  40  73 SW17G24   30.06F
SHOW LOW       PTSUNNY   48  36  61 S22G33    30.07F
$$

AZZ023-012000-
GREATER PHOENIX AREA

CITY           SKY/WX    TMP DP  RH WIND       PRES   REMARKS
PHOENIX        PTSUNNY   69  49  48 S10       29.96F
BUCKEYE        CLOUDY    66  50  55 SE7       29.97F
GLENDALE       PTSUNNY   68  48  49 CALM      29.98F
LUKE AFB       CLOUDY    68  50  52 VRB3      29.96F
DEER VALLEY    CLOUDY    64  48  56 SE9       29.97F
SCOTTSDALE     CLOUDY    66  48  52 SE9G17    29.99F
MESA-FALCON    PTSUNNY   68  46  45 S12       29.98F
MESA-GATEWAY   MOSUNNY   70  48  46 S14       30.00F
CHANDLER       PTSUNNY   70  48  46 S17       29.98F
$$

AZZ027-028-012000-
SOUTHWEST MARICOPA COUNTY AND PINAL COUNTY

CITY           SKY/WX    TMP DP  RH WIND       PRES   REMARKS
CASA GRANDE    CLOUDY    68  46  45 S13G18    29.99F
$$

AZZ503-504-507>509-012000-
SOUTHEAST ARIZONA

CITY           SKY/WX    TMP DP  RH WIND       PRES   REMARKS
TUCSON         SUNNY     70  38  31 SW12G21   30.02F
DAVIS-MONTHAN  SUNNY     69  39  34 VRB6      30.00F
RYAN FIELD       N/A     72  43  35 S12G21    30.01F
NOGALES        SUNNY     67  34  29 S21       30.05F
SIERRA VISTA   SUNNY     66  26  22 S14G24    30.07F
DOUGLAS        MOSUNNY   69  25  19 S18G26    30.08F
SAFFORD        SUNNY     70  28  21 SE14      30.00F
$$

AZZ020-021-025-026-031-012000-
SOUTHWEST ARIZONA

CITY           SKY/WX    TMP DP  RH WIND       PRES   REMARKS
YUMA           CLOUDY    63  47  55 NW12      29.95S
$$

CAZ031-033-041-043-047-048-061-012000-
SOUTHERN CALIFORNIA

CITY           SKY/WX    TMP DP  RH WIND       PRES   REMARKS
DOWNTOWN L.A.  CLOUDY    60  46  59 E7        29.93F
L.A. AIRPORT   PTSUNNY   61  47  59 NE9       29.93F
SAN DIEGO      LGT RAIN  56  49  77 E14G21    29.94F
BURBANK        PTSUNNY   58  42  55 SE12      29.93F
ONTARIO        CLOUDY    54  45  71 SE8       29.95S
RIVERSIDE      LGT RAIN  54  47  77 SE6       29.97R
PALM SPRINGS   LGT RAIN  54  48  80 S5        30.02R
EL CENTRO NAS  LGT RAIN  55  50  83 NW5       30.00S
IMPERIAL       LGT RAIN  55  52  89 NW5       30.00R FOG
BLYTHE         LGT RAIN  56  52  86 W6        29.99S
NEEDLES        CLOUDY    63  37  38 CALM      29.98R
$$

NVZ020-UTZ003-012000-
SOUTHERN NEVADA-UTAH

CITY           SKY/WX    TMP DP  RH WIND       PRES   REMARKS
LAS VEGAS      CLOUDY    54  33  45 CALM      29.96S
SALT LAKE CITY PTSUNNY   43  29  57 N7        30.09F
$$

NMZ009-TXZ055-012000-
NEW MEXICO-WEST TEXAS

CITY           SKY/WX    TMP DP  RH WIND       PRES   REMARKS
ALBUQUERQUE    PTSUNNY   46  36  68 W6        30.12F
EL PASO        MOSUNNY   69  29  22 S12G17    30.09F
$$


........................KEY........................
SKY/WX - SKY CONDITION/WEATHER
TMP    - TEMPERATURE IN FAHRENHEIT
DP     - DEW POINT IN FAHRENHEIT
RH     - RELATIVE HUMIDITY IN PERCENT
WIND   - DIRECTION AND SPEED IN MILES PER HOUR (MPH)
VRB    - VARIABLE WIND DIRECTION
PRES   - MEAN SEA LEVEL PRESSURE IN INCHES OF MERCURY
         F - FALLING PRESSURE   R - RISING PRESSURE
         S - STEADY PRESSURE
VSB    - VISIBILITY IN MILES
HX     - HEAT INDEX IN FAHRENHEIT
WCI    - WIND CHILL INDEX IN FAHRENHEIT
TC     - TEMPERATURE IN CELSIUS WHICH IS ALSO KNOWN AS
         TEMPERATURE IN CENTIGRADE
AFB    - AIR FORCE BASE
         LUKE AFB IS LUKE AIR FORCE BASE
         DAVIS-MONTHAN IS DAVIS-MONTHAN AIR FORCE BASE
NAS    - NAVAL AIR STATION
         EL CENTRO NAS IS EL CENTRO NAVAL AIR STATION
N/A    - NOT AVAILABLE


USA.gov is the U.S. government's official web portal to all federal, state and local government web resources and services.